Newport News, VA

1:22 PM EST on December 06, 2019 (GMT -0500)
Newport News-Williamsburg International

Weather History for KPHF - November, 2019

Change the Weather History Date:

Sunday, November 17, 2019

  Actual Average Record
Temperature  
Mean Temperature 46 °F -  
Max Temperature 48 °F 59 °F 74 °F (1951)
Min Temperature 43 °F 39 °F 22 °F (1967)
Degree Days  
Heating Degree Days 20    
Moisture  
Dew Point 38 °F    
Average Humidity 76    
Maximum Humidity 86    
Minimum Humidity 66    
Precipitation  
Precipitation 0.00 in - - ()
Sea Level Pressure  
Sea Level Pressure 30.05 in    
Wind  
Wind Speed 12 mph ()    
Max Wind Speed 17 mph    
Max Gust Speed 28 mph    
Visibility 8.4 miles    
Events      
Averages and records for this station are not official NWS values.
T = Trace of Precipitation, MM = Missing Value Source: Averaged Metar Reports

Daily Weather History Graph

Daily Weather History Graph

Search for Another Location

Airport or City:

Astronomy

Nov. 17, 2019 Rise Set
Actual Time 6:46 AM EST 4:54 PM EST
Civil Twilight 6:18 AM EST 5:22 PM EST
Nautical Twilight 5:47 AM EST 5:54 PM EST
Astronomical Twilight 5:16 AM EST 6:25 PM EST
Moon 9:30 PM EST (11/17) 11:28 AM EST (11/17)
Length of Visible Light 11h 03m
Length of Day
10h 08m
Waning Gibbous, 73% of the Moon is Illuminated
Nov 17
Waning Gibbous
Nov 19
Last Quarter
Nov 26
New
Dec 4
First Quarter
Dec 12
Full

Hourly Weather History & Observations

Time (EST) Temp. Windchill Dew Point Humidity Pressure Visibility Wind Dir Wind Speed Gust Speed Precip Events Conditions
12:09 AM 44.1 °F 38.1 °F 36.0 °F 73% 30.17 in 10.0 mi NNE 11.5 mph 21.9 mph N/A   Overcast
12:54 AM 43.0 °F 36.0 °F 36.0 °F 76% 30.17 in 10.0 mi NNE 13.8 mph 21.9 mph N/A   Overcast
1:54 AM 44.1 °F 36.8 °F 36.0 °F 73% 30.15 in 10.0 mi NNE 16.1 mph 23.0 mph N/A   Overcast
2:54 AM 44.1 °F 37.7 °F 37.0 °F 76% 30.13 in 10.0 mi NNE 12.7 mph 23.0 mph N/A   Overcast
3:54 AM 45.0 °F 38.5 °F 37.9 °F 76% 30.12 in 10.0 mi NNE 13.8 mph 25.3 mph N/A   Overcast
4:36 AM 45.0 °F 37.9 °F 37.9 °F 76% 30.11 in 10.0 mi North 16.1 mph 23.0 mph N/A   Overcast
4:54 AM 45.0 °F 38.5 °F 37.9 °F 76% 30.11 in 10.0 mi NNE 13.8 mph 21.9 mph N/A   Overcast
5:32 AM 45.0 °F 37.6 °F 37.0 °F 74% 30.11 in 10.0 mi NNE 17.3 mph 25.3 mph N/A   Overcast
5:54 AM 45.0 °F 37.6 °F 37.0 °F 74% 30.11 in 10.0 mi NNE 17.3 mph 25.3 mph N/A   Overcast
6:54 AM 44.1 °F 37.4 °F 36.0 °F 73% 30.12 in 10.0 mi NNE 13.8 mph 25.3 mph N/A   Overcast
7:54 AM 44.1 °F 37.4 °F 36.0 °F 73% 30.12 in 10.0 mi NNE 13.8 mph 21.9 mph N/A   Overcast
8:54 AM 45.0 °F 38.5 °F 36.0 °F 71% 30.13 in 10.0 mi NNE 13.8 mph 27.6 mph N/A   Overcast
9:01 AM 45.0 °F 38.2 °F 36.0 °F 71% 30.12 in 10.0 mi North 15.0 mph 27.6 mph N/A   Overcast
9:54 AM 45.0 °F 39.3 °F 36.0 °F 71% 30.12 in 10.0 mi NNE 11.5 mph 26.5 mph N/A   Overcast
10:04 AM 45.0 °F 38.9 °F 36.0 °F 71% 30.12 in 10.0 mi NNE 12.7 mph 25.3 mph N/A   Overcast
10:54 AM 45.0 °F 37.6 °F 36.0 °F 71% 30.11 in 10.0 mi NNE 17.3 mph 25.3 mph N/A   Overcast
11:54 AM 46.9 °F - 37.0 °F 68% 30.07 in 10.0 mi North 15.0 mph - N/A   Overcast
12:54 PM 48.0 °F - 37.9 °F 68% 30.04 in 10.0 mi NNE 12.7 mph 20.7 mph 0.00 in   Overcast
1:54 PM 48.9 °F - 37.9 °F 66% 30.01 in 10.0 mi North 15.0 mph 21.9 mph N/A   Overcast
2:54 PM 48.9 °F - 39.0 °F 69% 30.00 in 10.0 mi NNE 12.7 mph 21.9 mph N/A   Overcast
3:54 PM 48.9 °F - 39.0 °F 69% 29.99 in 10.0 mi NNE 10.4 mph 24.2 mph N/A   Overcast
4:54 PM 48.0 °F - 39.0 °F 71% 29.99 in 10.0 mi North 11.5 mph 18.4 mph N/A   Overcast
5:15 PM 48.0 °F - 39.9 °F 74% 29.99 in 10.0 mi North 11.5 mph - N/A   Overcast
5:54 PM 46.9 °F - 39.9 °F 77% 29.99 in 10.0 mi North 12.7 mph 21.9 mph N/A   Overcast
6:27 PM 46.0 °F 40.2 °F 41.0 °F 83% 29.98 in 7.0 mi NNE 12.7 mph 20.7 mph N/A   Overcast
6:54 PM 46.0 °F 40.2 °F 41.0 °F 83% 29.99 in 7.0 mi North 12.7 mph - N/A   Overcast
7:54 PM 45.0 °F 39.7 °F 41.0 °F 86% 29.97 in 5.0 mi North 10.4 mph 20.7 mph N/A   Overcast
8:54 PM 45.0 °F 40.1 °F 41.0 °F 86% 29.95 in 3.0 mi North 9.2 mph 19.6 mph N/A   Overcast
9:29 PM 45.0 °F 39.7 °F 41.0 °F 86% 29.94 in 2.5 mi North 10.4 mph 18.4 mph N/A   Overcast
9:54 PM 45.0 °F 40.6 °F 41.0 °F 86% 29.93 in 3.0 mi North 8.1 mph - N/A   Overcast
10:54 PM 45.0 °F 40.1 °F 41.0 °F 86% 29.92 in 2.5 mi North 9.2 mph 18.4 mph N/A   Overcast
11:01 PM 45.0 °F 39.3 °F 41.0 °F 86% 29.92 in 3.0 mi North 11.5 mph - N/A   Overcast
11:54 PM 45.0 °F 40.6 °F 41.0 °F 86% 29.92 in 3.0 mi North 8.1 mph - N/A   Overcast